Weather History for Jacksonville, FL

Change the Weather History Date:

Friday, January 18, 2013

  Actual Average Record
Temperature  
Mean Temperature 49 °F 53 °F  
Max Temperature 57 °F 65 °F 83 °F (1937)
Min Temperature 41 °F 41 °F 21 °F (1977)
Degree Days  
Heating Degree Days 16 12  
Month to date heating degree days 89 229  
Since 1 July heating degree days 565 725  
Cooling Degree Days 0 0  
Month to date cooling degree days 33 0  
Year to date cooling degree days 33 0  
Moisture  
Dew Point 37 °F    
Average Humidity 68    
Maximum Humidity 82    
Minimum Humidity 54    
Precipitation  
Precipitation 0.00 in 0.11 in 0.62 in (1941)
Month to date precipitation 0.82 1.80  
Year to date precipitation 0.82 1.80  
Snow  
Snow 0.00 in 0.00 in T in (1977)
Month to date snowfall 0.0 0.0  
Since 1 July snowfall 0.0 T  
Snow Depth 0.00 in    
Sea Level Pressure  
Sea Level Pressure 30.34 in    
Wind  
Wind Speed 12 mph (North)    
Max Wind Speed 26 mph    
Max Gust Speed 33 mph    
Visibility 10 miles    
Events      
T = Trace of Precipitation, MM = Missing Value Source: NWS Daily Summary

Daily Weather History Graph

Daily Weather History Graph

Search for Another Location

Airport:

Trip Planner

Search our weather history database for the weather conditions in past years. The results will help you decide how hot, cold, wet, or windy it might be!

Date:

Astronomy

Jan. 18, 2013 Rise Set
Actual Time 7:23 AM EST 5:51 PM EST
Civil Twilight 6:57 AM EST 6:16 PM EST
Nautical Twilight 6:28 AM EST 6:46 PM EST
Astronomical Twilight 5:59 AM EST 7:15 PM EST
Moon 11:35 AM EST (1/18) 12:07 AM EST (1/18)
Length of Visible Light 11h 19m
Length of Day
10h 27m
Waxing Crescent, 47% of the Moon is Illuminated
Jan 18
Waxing Crescent
Jan 18
First Quarter
Jan 26
Full
Feb 3
Last Quarter
Feb 10
New

Hourly Weather History & Observations

Time (EST) Temp. Windchill Dew Point Humidity Pressure Visibility Wind Dir Wind Speed Gust Speed Precip Events Conditions
12:22 AM 42.8 °F 35.8 °F 32.0 °F 66% 30.16 in 10.0 mi NW 13.8 mph 18.4 mph N/A   Mostly Cloudy
12:56 AM 41.0 °F 35.8 °F 32.0 °F 70% 30.19 in 10.0 mi NW 8.1 mph - N/A   Mostly Cloudy
1:56 AM 42.1 °F 37.1 °F 33.1 °F 70% 30.20 in 10.0 mi NW 8.1 mph - N/A   Mostly Cloudy
2:56 AM 42.1 °F 37.7 °F 33.1 °F 70% 30.21 in 10.0 mi NW 6.9 mph - N/A   Mostly Cloudy
3:56 AM 43.0 °F 38.8 °F 34.0 °F 71% 30.21 in 10.0 mi NW 6.9 mph - N/A   Mostly Cloudy
4:56 AM 43.0 °F 38.2 °F 35.1 °F 74% 30.23 in 10.0 mi NNW 8.1 mph - N/A   Mostly Cloudy
5:56 AM 42.1 °F 37.1 °F 36.0 °F 79% 30.26 in 10.0 mi North 8.1 mph - N/A   Mostly Cloudy
6:56 AM 43.0 °F 37.7 °F 37.0 °F 80% 30.29 in 10.0 mi North 9.2 mph - N/A   Mostly Cloudy
7:56 AM 42.1 °F 37.1 °F 37.9 °F 85% 30.32 in 10.0 mi North 8.1 mph - N/A   Mostly Cloudy
8:43 AM 44.6 °F 39.2 °F 39.2 °F 81% 30.34 in 10.0 mi North 10.4 mph - N/A   Mostly Cloudy
8:56 AM 46.0 °F 41.9 °F 39.0 °F 76% 30.36 in 10.0 mi North 8.1 mph - N/A   Mostly Cloudy
9:56 AM 52.0 °F - 39.9 °F 63% 30.39 in 10.0 mi NE 20.7 mph 26.5 mph N/A   Mostly Cloudy
10:56 AM 54.0 °F - 39.9 °F 59% 30.40 in 10.0 mi NE 23.0 mph 31.1 mph N/A   Mostly Cloudy
11:56 AM 55.9 °F - 41.0 °F 57% 30.40 in 10.0 mi NE 21.9 mph 32.2 mph N/A   Mostly Cloudy
12:56 PM 55.9 °F - 41.0 °F 57% 30.39 in 10.0 mi NE 20.7 mph 28.8 mph N/A   Mostly Cloudy
1:56 PM 57.0 °F - 41.0 °F 55% 30.39 in 10.0 mi NE 20.7 mph 27.6 mph N/A   Mostly Cloudy
2:56 PM 55.9 °F - 39.9 °F 55% 30.39 in 10.0 mi NE 18.4 mph 26.5 mph N/A   Scattered Clouds
3:56 PM 55.0 °F - 39.0 °F 55% 30.39 in 10.0 mi NE 19.6 mph 28.8 mph N/A   Scattered Clouds
4:56 PM 54.0 °F - 37.9 °F 55% 30.40 in 10.0 mi NNE 15.0 mph 25.3 mph N/A   Scattered Clouds
5:56 PM 51.1 °F - 37.9 °F 61% 30.41 in 10.0 mi NNE 13.8 mph 21.9 mph N/A   Scattered Clouds
6:56 PM 48.0 °F - 37.9 °F 68% 30.42 in 10.0 mi NNE 8.1 mph - N/A   Scattered Clouds
7:56 PM 46.0 °F 41.9 °F 37.0 °F 71% 30.42 in 10.0 mi North 8.1 mph - N/A   Scattered Clouds
8:56 PM 46.0 °F 41.4 °F 37.0 °F 71% 30.42 in 10.0 mi North 9.2 mph - N/A   Scattered Clouds
9:56 PM 45.0 °F 41.2 °F 37.9 °F 76% 30.41 in 10.0 mi NNW 6.9 mph - N/A   Scattered Clouds
10:56 PM 44.1 °F 40.1 °F 37.0 °F 76% 30.40 in 10.0 mi NNW 6.9 mph - N/A   Partly Cloudy
11:56 PM 44.1 °F 39.5 °F 37.0 °F 76% 30.38 in 10.0 mi North 8.1 mph - N/A   Scattered Clouds